Location: East Norwich
(40.8468°N, 73.5351°W)
Time: 16:04:31
(UTC+00:00)

Daily predictions for brighter satellites

Satellite Brightness Start Highest point End
(mag) Time Altitude Azimuth Time Altitude Azimuth Time Altitude Azimuth
Cosmos 1953 Rocket 4.2 22:26:57 10° NNW 22:31:15 61° W 22:35:29 10° S
USA 215 4.1 22:25:54 10° SSE 22:32:18 56° SW 22:38:44 10° NW
Cosmos 1726 2.3 22:29:20 10° S 22:32:58 78° W 22:36:37 10° N
Okean-O 2.6 22:37:51 10° SSE 22:42:17 87° ENE 22:46:45 10° NNW
Cosmos 2082 Rocket 2.6 22:37:09 10° NNW 22:42:35 43° ENE 22:47:56 10° SE
Delta 2 Rocket 4.1 22:40:11 10° WSW 22:43:38 34° S 22:46:49 10° ESE
Cosmos 1703 3.3 22:42:16 10° N 22:46:12 84° W 22:50:04 10° S
BREEZE-M DEB (TANK) 4.1 22:43:54 10° NW 22:48:20 54° NNE 23:01:09 10° ESE
Cosmos 1908 3.7 22:50:48 10° SSW 22:54:39 66° W 22:58:32 10° N
Shenzhou-11 Module 3.0 22:52:46 10° W 22:55:22 36° SSW 22:57:57 10° SE
Cosmos 1339 Rocket 4.4 22:51:14 10° S 22:57:19 84° E 23:03:31 10° N
BREEZE-M DEB (TANK) 2.9 22:51:42 10° WSW 22:57:34 68° NNW 22:59:40 15° NE
YAOGAN 6 2.7 22:55:01 10° SSE 22:58:31 50° ENE 23:02:03 10° N
Cosmos 1812 Rocket 3.7 22:54:18 10° S 22:58:36 53° E 23:02:58 10° NNE
USA 238 DEB 3.8 22:51:55 10° SW 22:58:37 82° NW 23:05:32 10° NNE
USA 238 3.8 22:52:02 10° SW 22:58:42 82° NW 23:05:38 10° NNE
Unknown 3.0 23:00:17 10° NW 23:03:41 75° NE 23:06:14 17° ESE
Ariane Rocket 3.9 23:03:21 10° ESE 23:07:36 28° ENE 23:11:52 10° N
Cosmos 468 Rocket 4.5 23:04:23 10° SSE 23:09:13 38° ESE 23:14:04 10° NE
YAOGAN 1 2.6 23:05:42 10° SSE 23:09:55 56° ENE 23:14:10 10° N
CZ-4 R/B 1.4 23:08:30 10° SSE 23:12:42 80° ENE 23:16:57 10° N
SKYMED 2 3.7 23:09:34 10° N 23:13:55 77° WNW 23:18:15 10° SSW
Meteor 2-1 Rocket 4.4 23:10:47 10° SSE 23:15:58 45° E 23:21:15 10° NNE
ASTEX 1 4.1 23:11:08 10° N 23:16:01 59° W 23:20:55 10° SSW
Cosmos 1605 Rocket 4.2 23:10:08 10° N 23:16:16 73° W 23:22:19 10° S
Lacrosse 5 1.8 23:13:58 10° NW 23:19:02 89° WSW 23:23:34 13° SE
NOSS 3-2 (A) 3.7 23:14:43 10° SW 23:20:23 68° NW 23:26:50 10° NNE
Cosmos 2278 Rocket 3.6 23:15:08 10° SW 23:20:24 39° WNW 23:25:42 10° N
FALCON 9 DEB 3.1 23:17:30 10° NW 23:20:59 90° NE 23:22:41 28° SE
Cosmos 1461 4.0 23:18:04 10° NW 23:22:02 45° WSW 23:26:07 10° S
Cosmos 1937 Rocket 4.3 23:20:25 10° N 23:24:54 29° ENE 23:25:52 27° E
CSL-04 Rocket 3.6 23:19:33 10° SSE 23:25:05 83° ENE 23:30:34 10° NNW
BREEZE-M DEB (TANK) 3.5 23:13:11 10° WSW 23:25:53 76° NNW 23:28:17 24° NE
Cosmos 2297 3.6 23:21:03 10° SSW 23:26:44 77° ESE 23:32:29 10° NNE
Cosmos 1727 Rocket 4.0 23:21:42 10° S 23:27:52 82° W 23:34:05 10° N
USA 116 3.4 23:24:33 10° N 23:27:55 82° WNW 23:31:39 10° SSW
Cosmos-2242 3.4 23:24:52 10° SSE 23:28:55 39° E 23:32:57 10° NNE
Abrixas rocket 4.0 23:29:13 10° NW 23:31:32 19° N 23:31:56 19° N
Cosmos 2173 Rocket 4.0 23:26:10 10° N 23:32:16 56° E 23:38:16 10° SSE
Cosmos 1570 Rocket 4.3 23:27:41 10° S 23:32:42 44° ESE 23:36:40 16° NE
Falcon 9 debris 3.5 23:29:35 10° WNW 23:32:59 61° SW 23:34:22 31° SSE
ADEOS Rocket 4.3 23:29:17 10° NE 23:40:21 12° SE 23:40:55 10° SE
Cosmos 44 3.6 23:31:28 10° SW 23:36:25 67° WNW 23:40:36 13° NNE
Cosmos 1300 3.2 23:36:18 10° SSW 23:40:04 59° W 23:43:51 10° N
Cosmos 2084 Rocket 3.6 23:36:27 10° NW 23:40:52 76° WSW 23:43:25 24° SSE
Unknown 3.3 23:37:25 10° NW 23:40:55 71° SW 23:41:38 51° SSE
Cosmos 1763 Rocket 3.5 23:38:12 10° S 23:43:25 61° ESE 23:47:53 14° NNE
Cosmos 2123 Rocket 4.3 23:38:13 10° SSE 23:44:03 42° E 23:49:53 10° NNE
Cosmos 1802 Rocket 4.0 23:41:09 10° N 23:47:32 61° E 23:53:47 10° SSE
NOSS 3-2 (C) 3.7 23:41:59 10° SW 23:47:41 67° NW 23:54:08 10° NNE
NOAA 11 4.0 23:42:38 10° SSE 23:48:04 80° ENE 23:53:30 10° N
SJ 16-02 2.0 23:44:16 10° N 23:47:34 37° NE 23:47:34 37° NE
Cosmos 1000 Rocket 4.4 23:43:20 10° S 23:49:31 79° E 23:55:48 10° N
Cosmos 2208 Rocket 4.0 23:45:22 10° S 23:50:24 53° ESE 23:51:36 43° ENE
Cosmos 1833 Rocket 4.2 23:45:33 10° NW 23:50:37 36° WSW 23:55:41 10° S
CZ-2D R/B 3.4 23:53:02 20° S 23:55:38 74° WSW 23:59:31 10° NNW
